Location: Bartlow
(52.0833°N, 0.3167°E)
Time: 05:17:49
(UTC+00:00)

ARIANE 5 R/B - Pass Details

Date: 26 September 2023
Orbit: 748 x 794 km, 98.8° (Epoch: 29 November)

Event Time Altitude Azimuth Distance (km) Brightness Sun altitude
Rises 04:21:03 0° 19° (NNE) 3,253 6.3 -14.4°
Reaches altitude 10° 04:23:27 10° 24° (NNE) 2,315 5.6 -14.1°
Maximum altitude 04:28:24 50° 100° (E) 965 3.4 -13.3°
Drops below altitude 10° 04:33:15 10° 176° (S) 2,273 4.8 -12.6°
Sets 04:35:36 0° 181° (S) 3,189 5.5 -12.3°
